Weather History for Campo, CA

Change the Weather History Date:

Tuesday, January 15, 2013

  Actual Average Record
Temperature  
Mean Temperature 36 °F 49 °F  
Max Temperature 46 °F 63 °F 84 °F (1975)
Min Temperature 26 °F 34 °F 22 °F (1964)
Degree Days  
Heating Degree Days 29 16  
Month to date heating degree days 358 251  
Since 1 July heating degree days 1356 1357  
Cooling Degree Days 0 0  
Month to date cooling degree days 0 0  
Year to date cooling degree days 0 0  
Moisture  
Dew Point 4 °F    
Average Humidity 25    
Maximum Humidity 31    
Minimum Humidity 19    
Precipitation  
Precipitation 0.00 in 0.10 in 3.05 in (1978)
Month to date precipitation 0.32 1.46  
Year to date precipitation 0.32 1.46  
Since 1 July precipitation 4.79 7.04  
Snow  
Snow 0.00 in - - ()
Month to date snowfall 0.0  
Year to date snowfall 0.0  
Since 1 July snowfall 0.0  
Snow Depth 0.00 in    
Sea Level Pressure  
Sea Level Pressure 30.29 in    
Wind  
Wind Speed 15 mph (ENE)    
Max Wind Speed 33 mph    
Max Gust Speed 39 mph    
T = Trace of Precipitation, MM = Missing Value Source: NWS Daily Summary

Daily Weather History Graph

Daily Weather History Graph

Search for Another Location

Airport:

Trip Planner

Search our weather history database for the weather conditions in past years. The results will help you decide how hot, cold, wet, or windy it might be!

Date:

Astronomy

Jan. 15, 2013 Rise Set
Actual Time 6:47 AM PST 5:03 PM PST
Civil Twilight 6:21 AM PST 5:29 PM PST
Nautical Twilight 5:51 AM PST 6:00 PM PST
Astronomical Twilight 5:21 AM PST 6:29 PM PST
Moon 9:13 AM PST (1/15) 9:38 PM PST (1/15)
Length of Visible Light 11h 08m
Length of Day
10h 15m
Waxing Crescent, 20% of the Moon is Illuminated
Jan 15
Waxing Crescent
Jan 18
First Quarter
Jan 26
Full
Feb 3
Last Quarter
Feb 9
New

Hourly Weather History & Observations

Time (PST) Temp. Windchill Dew Point Humidity Pressure Visibility Wind Dir Wind Speed Gust Speed Precip Events Conditions
12:52 AM 32.0 °F 24.8 °F -4.0 °F 21% 30.25 in - NE 8.1 mph - N/A   Unknown
1:52 AM 32.0 °F 21.2 °F -2.9 °F 22% 30.25 in - NE 16.1 mph 20.7 mph N/A   Unknown
2:52 AM 33.1 °F 23.0 °F -2.0 °F 22% 30.27 in - East 15.0 mph - N/A   Unknown
3:52 AM 30.9 °F 19.8 °F -0.9 °F 26% 30.27 in - ENE 16.1 mph - N/A   Unknown
4:52 AM 30.9 °F 20.2 °F -0.9 °F 26% 30.30 in - NE 15.0 mph - N/A   Unknown
5:52 AM 28.9 °F 25.2 °F -0.9 °F 28% 30.32 in - ENE 3.5 mph - N/A   Unknown
6:52 AM 28.9 °F - 1.0 °F 30% 30.32 in - Calm Calm - N/A   Unknown
7:25 AM 35.6 °F 27.1 °F 1.4 °F 24% 30.29 in - NE 12.7 mph - N/A   Unknown
7:52 AM 37.9 °F 29.6 °F 1.9 °F 22% 30.31 in - NE 13.8 mph 23.0 mph N/A   Unknown
8:52 AM 41.0 °F 34.3 °F 3.0 °F 21% 30.35 in - NE 11.5 mph 16.1 mph N/A   Unknown
9:52 AM 41.0 °F 31.9 °F 3.0 °F 21% 30.35 in - ENE 19.6 mph 27.6 mph N/A   Unknown
10:52 AM 43.0 °F 35.7 °F 3.0 °F 19% 30.33 in - NE 15.0 mph 24.2 mph N/A   Unknown
11:52 AM 45.0 °F 35.6 °F 5.0 °F 19% 30.27 in - NE 27.6 mph 32.2 mph N/A   Unknown
12:52 PM 45.0 °F 35.6 °F 6.1 °F 20% 30.25 in - ENE 27.6 mph 33.4 mph N/A   Unknown
1:52 PM 46.0 °F 38.0 °F 6.1 °F 20% 30.25 in - ENE 21.9 mph - N/A   Unknown
2:52 PM 45.0 °F 36.0 °F 6.1 °F 20% 30.25 in - ENE 25.3 mph 34.5 mph N/A   Unknown
3:52 PM 45.0 °F 36.0 °F 7.0 °F 21% 30.27 in - ENE 25.3 mph 32.2 mph N/A   Unknown
4:52 PM 43.0 °F 34.8 °F 9.0 °F 25% 30.28 in - ENE 18.4 mph - N/A   Unknown
5:52 PM 39.0 °F 31.4 °F 8.1 °F 28% 30.31 in - East 12.7 mph - N/A   Unknown
6:52 PM 37.9 °F 31.5 °F 7.0 °F 28% 30.32 in - ENE 9.2 mph - N/A   Unknown
7:52 PM 37.0 °F 28.9 °F 9.0 °F 31% 30.29 in - East 12.7 mph - N/A   Unknown
8:52 PM 43.0 °F 37.7 °F 10.9 °F 27% 30.27 in - NE 9.2 mph - N/A   Unknown
9:52 PM 43.0 °F - 10.9 °F 27% 30.28 in - Calm Calm - N/A   Unknown
10:52 PM 43.0 °F 40.3 °F 10.9 °F 27% 30.28 in - Variable 4.6 mph - N/A   Unknown
11:52 PM 42.1 °F 32.3 °F 10.9 °F 28% 30.26 in - ENE 24.2 mph - N/A   Unknown